Bozeman, MT

8:10 PM MDT on April 26, 2017 (GMT -0600)
Gallatin

Weather History for KBZN - September, 2014

Change the Weather History Date:

Tuesday, September 2, 2014

  Actual Average Record
Temperature  
Mean Temperature 60 °F 63 °F  
Max Temperature 79 °F 82 °F 99 °F (2007)
Min Temperature 40 °F 45 °F 29 °F (1959)
Degree Days  
Heating Degree Days 5 4  
Month to date heating degree days 12 7  
Since 1 July heating degree days 98 74  
Cooling Degree Days 0 2  
Month to date cooling degree days 0 4  
Year to date cooling degree days 182 350  
Growing Degree Days 10 (Base 50)    
Moisture  
Dew Point 39 °F    
Average Humidity 53    
Maximum Humidity 86    
Minimum Humidity 19    
Precipitation  
Precipitation 0.00 in 0.04 in 1.20 in (1944)
Month to date precipitation 0.00 0.07  
Year to date precipitation 12.31 10.57  
Snow  
Snow 0.00 in 0.00 in 0.00 in (2000)
Month to date snowfall 0.0 0.0  
Since 1 July snowfall 0.0 T  
Since 1 September snowfall 0.0 0.0  
Snow Depth 0.00 in    
Sea Level Pressure  
Sea Level Pressure 29.82 in    
Wind  
Wind Speed 5 mph (SE)    
Max Wind Speed 16 mph    
Max Gust Speed 20 mph    
Visibility 10 miles    
Events      
T = Trace of Precipitation, MM = Missing Value Source: NWS Daily Summary

Daily Weather History Graph

Daily Weather History Graph

Search for Another Location

Airport or City:

Trip Planner

Search our weather history database for the weather conditions in past years. The results will help you decide how hot, cold, wet, or windy it might be!

Date:

Astronomy

Sep. 02, 2014 Rise Set
Actual Time 6:46 AM MDT 8:00 PM MDT
Civil Twilight 6:16 AM MDT 8:31 PM MDT
Nautical Twilight 5:39 AM MDT 9:08 PM MDT
Astronomical Twilight 4:59 AM MDT 9:47 PM MDT
Moon 2:56 PM MDT (9/2) No Moon Set
Length of Visible Light 14h 14m
Length of Day
13h 13m
First Quarter, 53% of the Moon is Illuminated
Sep 2
First Quarter
Sep 8
Full
Sep 15
Last Quarter
Sep 24
New
Oct 1
First Quarter

Hourly Weather History & Observations

Time (MDT) Temp. Windchill Dew Point Humidity Pressure Visibility Wind Dir Wind Speed Gust Speed Precip Events Conditions
12:56 AM 46.9 °F - 39.9 °F 77% 29.96 in 10.0 mi SSE 4.6 mph - N/A   Clear
1:56 AM 45.0 °F 41.2 °F 39.9 °F 82% 29.96 in 10.0 mi SSE 6.9 mph - N/A   Clear
2:56 AM 41.0 °F 35.8 °F 37.9 °F 89% 29.96 in 10.0 mi SSE 8.1 mph - N/A   Clear
3:56 AM 41.0 °F 35.8 °F 37.9 °F 89% 29.95 in 10.0 mi SE 8.1 mph - N/A   Clear
4:56 AM 42.1 °F 40.2 °F 37.9 °F 85% 29.94 in 10.0 mi ESE 3.5 mph - N/A   Clear
5:56 AM 41.0 °F 36.4 °F 37.0 °F 86% 29.94 in 10.0 mi SE 6.9 mph - N/A   Clear
6:56 AM 41.0 °F 37.1 °F 37.0 °F 86% 29.94 in 10.0 mi SSE 5.8 mph - N/A   Clear
7:56 AM 48.0 °F - 41.0 °F 77% 29.96 in 10.0 mi East 3.5 mph - N/A   Clear
8:56 AM 52.0 °F - 43.0 °F 71% 29.96 in 10.0 mi ESE 3.5 mph - N/A   Clear
9:56 AM 57.9 °F - 42.1 °F 56% 29.94 in 10.0 mi Calm Calm - N/A   Clear
10:56 AM 63.0 °F - 41.0 °F 45% 29.92 in 10.0 mi Variable 3.5 mph - N/A   Clear
11:56 AM 64.9 °F - 39.0 °F 39% 29.89 in 10.0 mi Calm Calm - N/A   Clear
12:56 PM 69.1 °F - 37.9 °F 32% 29.83 in 10.0 mi Calm Calm - N/A   Clear
1:56 PM 73.0 °F - 39.0 °F 29% 29.79 in 10.0 mi NE 3.5 mph - N/A   Clear
2:56 PM 75.9 °F - 37.9 °F 25% 29.75 in 10.0 mi North - - N/A   Clear
3:56 PM 77.0 °F - 42.8 °F 29% 29.79 in 10.0 mi NNW 8.1 mph - N/A   Clear
4:56 PM 77.0 °F - 45.0 °F 32% 29.69 in 10.0 mi North 5.8 mph - N/A   Clear
5:56 PM 79.0 °F - 39.0 °F 24% 29.67 in 10.0 mi North - - N/A   Clear
6:02 PM 79.0 °F - 34.0 °F 20% 29.74 in 10.0 mi WSW 15.0 mph - N/A   Clear
6:56 PM 78.1 °F - 33.1 °F 19% 29.65 in 10.0 mi SW 13.8 mph - N/A   Clear
7:56 PM 72.0 °F - 35.1 °F 26% 29.65 in 10.0 mi SSW 9.2 mph - N/A   Clear
8:56 PM 63.0 °F - 37.9 °F 40% 29.66 in 10.0 mi South 5.8 mph - N/A   Clear
9:56 PM 59.0 °F - 39.0 °F 48% 29.68 in 10.0 mi Calm Calm - N/A   Clear
10:56 PM 59.0 °F - 37.9 °F 46% 29.66 in 10.0 mi ENE 5.8 mph - N/A   Clear
11:56 PM 55.0 °F - 39.9 °F 57% 29.66 in 10.0 mi Variable 3.5 mph - N/A   Clear